Regional Weather Roundup
Issued by NWS

Home | Current Version | Previous Version | Text Only | Print | Product List | Glossary On
Versions: 1 2 3 4 5 6 7 8 9 10 11 12 13 14 15 16 17 18 19 20 21 22 23 24 25 26 27 28 29 30 31 32 33 34 35 36 37 38 39 40 41 42 43 44 45 46 47 48 49 50
000
ASUS45 KSLC 280210
RWRUT

UTAH REGIONAL WEATHER ROUNDUP
NATIONAL WEATHER SERVICE SALT LAKE CITY UT
700 PM MST SAT DEC 27 2014

UTZ001>011-023>025-280300-

NORTHERN UTAH

CITY           SKY/WX    TMP DP  RH WIND       PRES   REMARKS
BRIGHAM CITY   MOCLDY    25  15  64 CALM      30.30F
HILL AFB       MOCLDY    20  13  74 S7        30.28F WCI  11
LOGAN          MOCLDY    16  12  84 W5        30.27F WCI   9
OGDEN          MOCLDY    24  16  71 S7        30.29F WCI  16
PROVO AIRPORT  MOCLDY    19  14  79 SE3       30.33S
SALT LAKE CITY MOCLDY    25  15  66 SE8       30.30F WCI  16
VERNAL         MOCLDY    13   8  81 W5        30.28S WCI   5
WENDOVER       CLOUDY    28  18  64 SE9       30.28S WCI  20
HEBER CITY     CLOUDY    12   7  79 CALM      30.27S
WEST JORDAN    CLEAR     21  16  79 S12       30.30F WCI   9

$$

UTZ012>022-026-027-280300-

SOUTHERN/CENTRAL UTAH

CITY           SKY/WX    TMP DP  RH WIND       PRES   REMARKS
BLANDING       PTCLDY    22  11  62 NE7       30.35R WCI  14
BRYCE CANYON   MOCLDY    13   7  77 CALM      30.23R
CEDAR CITY     PTCLDY    14   7  73 SW5       30.27S WCI   6
DELTA          CLOUDY    20  16  82 SE5       30.31F WCI  14
MILFORD        MOCLDY    15  10  80 S5        30.30S WCI   8
MOAB/CYNLANDS  PTCLDY    16  10  77 CALM      30.31S
PRICE          CLOUDY    23   8  52 NE7       30.24S WCI  15
ST GEORGE      CLOUDY    36   5  27 S5        30.37R WCI  32
KANAB          MOCLDY    28  10  47 S3        30.33S

$$

REGIONAL REPORTS     COLORADO/ARIZONA

CITY           SKY/WX    TMP DP  RH WIND       PRES   REMARKS
CRAIG, CO      MOCLDY     1  -4  79 E3        30.24R
GRAND JUNCTION PTCLDY    18  11  74 CALM      30.31R
RIFLE          PTCLDY    13   4  67 SE7       30.29S WCI   3
MONTROSE       MOCLDY    19  10  68 S10       30.30R WCI   7
CORTEZ         CLEAR     21   8  57 CALM      30.28R
PAGE, AZ       PTCLDY    31   8  38 S5        30.31R WCI  26
GRAND CANYON   CLEAR     18  11  74 N3        30.28R
KINGMAN        CLEAR     28  11  48 SE7       30.32R WCI  21
FLAGSTAFF      PTCLDY    19   8  62 CALM      30.25R

$$

REGIONAL REPORTS    NEVADA/IDAHO/WYOMING

CITY           SKY/WX    TMP DP  RH WIND       PRES   REMARKS
LAS VEGAS, NV  PTCLDY    44   7  21 S5        30.32R
ELY            PTCLDY    17   8  67 CALM      30.24R
ELKO           CLOUDY    27  17  66 SW3       30.24F
POCATELLO, ID  CLOUDY    27  17  66 S18       30.20F WCI  14
BURLEY         CLOUDY    29  16  58 S15       30.18F WCI  18
EVANSTON, WY   PTCLDY    13   8  81 SW17      30.15F WCI  -4
ROCK SPRINGS   CLOUDY    15   7  70 SW9       30.14F WCI   3

$$


USA.gov is the U.S. government's official web portal to all federal, state and local government web resources and services.